Weather History for El Centro, CA

Change the Weather History Date:

Monday, February 18, 2013

  Actual Average Record
Temperature  
Mean Temperature 58 °F -  
Max Temperature 75 °F 69 °F 84 °F (2014)
Min Temperature 42 °F 47 °F 35 °F (2012)
Degree Days  
Heating Degree Days 6    
Growing Degree Days 8 (Base 50)    
Moisture  
Dew Point 31 °F    
Average Humidity 37    
Maximum Humidity 70    
Minimum Humidity 14    
Precipitation  
Precipitation 0.00 in - - ()
Sea Level Pressure  
Sea Level Pressure 29.96 in    
Wind  
Wind Speed 4 mph (SSW)    
Max Wind Speed 16 mph    
Max Gust Speed -    
Visibility 10 miles    
Events      
Averages and records for this station are not official NWS values.
T = Trace of Precipitation, MM = Missing Value Source: NWS Daily Summary

Daily Weather History Graph

Daily Weather History Graph

Search for Another Location

Airport:

Trip Planner

Search our weather history database for the weather conditions in past years. The results will help you decide how hot, cold, wet, or windy it might be!

Date:

Astronomy

Feb. 18, 2013 Rise Set
Actual Time 6:22 AM PST 5:31 PM PST
Civil Twilight 5:57 AM PST 5:56 PM PST
Nautical Twilight 5:28 AM PST 6:24 PM PST
Astronomical Twilight 4:59 AM PST 6:53 PM PST
Moon 11:29 AM PST (2/18) 12:57 AM PST (2/18)
Length of Visible Light 11h 58m
Length of Day
11h 08m
First Quarter, 59% of the Moon is Illuminated
Feb 18
First Quarter
Feb 25
Full
Mar 4
Last Quarter
Mar 11
New
Mar 19
First Quarter

Hourly Weather History & Observations

Time (PST) Temp. Windchill Dew Point Humidity Pressure Visibility Wind Dir Wind Speed Gust Speed Precip Events Conditions
12:56 AM 55.0 °F - 21.0 °F 27% 29.96 in 10.0 mi West 4.6 mph - N/A   Clear
1:56 AM 48.9 °F - 25.0 °F 39% 29.97 in 10.0 mi South 5.8 mph - N/A   Clear
2:56 AM 48.0 °F - 34.0 °F 58% 29.96 in 10.0 mi Calm Calm - N/A   Clear
3:56 AM 46.0 °F 43.9 °F 33.1 °F 61% 29.96 in 10.0 mi SSW 4.6 mph - N/A   Clear
4:56 AM 46.0 °F - 32.0 °F 58% 29.98 in 10.0 mi Calm Calm - N/A   Clear
5:56 AM 42.1 °F - 33.1 °F 70% 30.00 in 10.0 mi Calm Calm - N/A   Clear
6:56 AM 44.1 °F 41.5 °F 32.0 °F 63% 30.02 in 9.0 mi SSE 4.6 mph - N/A   Clear
7:56 AM 53.1 °F - 35.1 °F 50% 30.04 in 10.0 mi Calm Calm - N/A   Clear
8:56 AM 60.1 °F - 28.0 °F 30% 30.04 in 10.0 mi Calm Calm - N/A   Clear
9:56 AM 66.0 °F - 32.0 °F 28% 30.04 in 10.0 mi NE 3.5 mph - N/A   Clear
10:56 AM 69.1 °F - 30.9 °F 24% 30.04 in 10.0 mi Calm Calm - N/A   Clear
11:56 AM 73.0 °F - 28.0 °F 19% 30.01 in 10.0 mi Calm Calm - N/A   Clear
12:56 PM 75.0 °F - 23.0 °F 14% 29.97 in 10.0 mi East 3.5 mph - N/A   Clear
1:56 PM 75.0 °F - 21.9 °F 14% 29.95 in 10.0 mi SE 4.6 mph - N/A   Clear
2:56 PM 75.0 °F - 27.0 °F 17% 29.93 in 10.0 mi Variable 3.5 mph - N/A   Clear
3:56 PM 75.0 °F - 25.0 °F 16% 29.91 in 10.0 mi SE 4.6 mph - N/A   Clear
4:56 PM 72.0 °F - 32.0 °F 23% 29.89 in 10.0 mi East 4.6 mph - N/A   Clear
5:56 PM 66.0 °F - 34.0 °F 30% 29.89 in 10.0 mi SE 4.6 mph - N/A   Clear
6:56 PM 62.1 °F - 32.0 °F 32% 29.91 in 10.0 mi WSW 8.1 mph - N/A   Clear
7:56 PM 61.0 °F - 39.0 °F 44% 29.91 in 10.0 mi SW 6.9 mph - N/A   Clear
8:56 PM 61.0 °F - 39.9 °F 46% 29.92 in 10.0 mi SW 6.9 mph - N/A   Clear
9:56 PM 62.1 °F - 37.9 °F 41% 29.92 in 10.0 mi WSW 16.1 mph - N/A   Clear
10:56 PM 62.1 °F - 37.9 °F 41% 29.91 in 10.0 mi WSW 16.1 mph - N/A   Clear
11:56 PM 59.0 °F - 35.1 °F 41% 29.90 in 10.0 mi West 10.4 mph - N/A   Clear